Location: Praha
(50.0830°N, 14.4670°E)
Time: 21:48:31
(UTC+02:00)

ISS - Pass Details

Date: 13 September 2019
Orbit: 411 x 421 km, 51.6° (Epoch: 19 September)

Event Time Altitude Azimuth Distance (km) Brightness Sun altitude
Exits shadow 05:30:39 17° 260° (W) 1,147 -2.2 -10.7°
Maximum altitude 05:32:25 26° 215° (SW) 862 -2.6 -10.5°
Drops below altitude 10° 05:35:15 10° 157° (SSE) 1,487 -0.9 -10.0°
Sets 05:37:33 0° 144° (SE) 2,349 0.3 -9.7°
